Sunshine Coast Airport Observation History
Time Wind Speed Temp Pressure Rel. Hum Rain
15/08:00pm NNW 9-12 kts 23.7°c 1012.5 hPa 73% 0.0mm
15/07:30pm N 13-17 kts 24.4°c 1012.0 hPa 71% 0.0mm
15/07:00pm N 13-20 kts 24.5°c 1011.8 hPa 68% 0.0mm
15/06:30pm N 11-17 kts 24.6°c 1011.4 hPa 69% 0.0mm
15/06:00pm N 13-18 kts 24.3°c 1011.2 hPa 80% 0.0mm
15/05:30pm N 16-22 kts 24.6°c 1010.7 hPa 77% 0.0mm
15/05:00pm N 16-24 kts 25.1°c 1010.1 hPa 74% 0.0mm
15/04:30pm NNE 19-27 kts 25.7°c 1009.8 hPa 72% 0.0mm
15/04:00pm NNE 20-27 kts 26.0°c 1009.8 hPa 71% 0.0mm
15/03:30pm NNE 18-24 kts 26.5°c 1009.9 hPa 72% 0.0mm
15/03:00pm NNE 18-23 kts 26.8°c 1009.9 hPa 72% 0.0mm
15/02:30pm NNE 19-24 kts 27.1°c 1010.0 hPa 70% 0.0mm
15/02:00pm NNE 19-23 kts 27.0°c 1010.5 hPa 72% 0.0mm
15/01:30pm NE 17-20 kts 27.2°c 1011.1 hPa 72% 0.0mm
15/01:00pm NE 18-22 kts 26.9°c 1011.6 hPa 74% 0.0mm
15/12:30pm NE 16-20 kts 26.7°c 1012.1 hPa 74% 0.0mm
15/12:00pm NE 15-18 kts 27.4°c 1012.4 hPa 73% 0.0mm
15/11:30am NE 13-16 kts 27.4°c 1013.0 hPa 74% 0.0mm
15/11:00am NE 12-15 kts 27.3°c 1013.5 hPa 74% 0.0mm
15/10:30am NE 11-13 kts 26.9°c 1014.0 hPa 72% 0.0mm
15/10:00am NE 10-13 kts 25.6°c 1014.4 hPa 75% 0.0mm
15/09:30am ENE 9-11 kts 26.2°c 1014.6 hPa 76% 0.0mm
15/09:00am ENE 8-9 kts 26.0°c 1014.8 hPa 74% 0.0mm
15/08:39am ENE 7-9 kts 25.1°c 1014.8 hPa 77% 0.0mm
15/08:30am NE 6-9 kts 24.9°c 1014.9 hPa 77% 0.0mm
15/08:20am ENE 6-8 kts 24.9°c 1014.8 hPa 79% 0.0mm
15/08:01am NW 6-9 kts 25.0°c 1014.9 hPa 74% 0.0mm
15/08:00am NW 6-9 kts 24.9°c 1014.9 hPa 74% 0.0mm
15/07:30am NW 4-6 kts 24.0°c 1014.9 hPa 82% 0.0mm
15/07:02am WNW 4-5 kts 22.7°c 1014.8 hPa 89% 0.0mm
15/07:00am WNW 4-5 kts 22.6°c 1014.8 hPa 90% 0.0mm
15/06:30am WNW 4-5 kts 20.8°c 1014.6 hPa 63% 0.0mm
15/06:02am WNW 1-4 kts 20.1°c 1014.5 hPa 70% 0.0mm
15/06:00am WNW 1-4 kts 20.2°c 1014.4 hPa 98% 0.0mm
15/05:31am NW 6-9 kts 19.3°c 1014.1 hPa 96% 0.0mm
15/05:30am NW 7-9 kts 19.3°c 1014.1 hPa 96% 0.0mm
15/05:00am CALM 0-3 kts 18.4°c 1013.5 hPa 93% 0.0mm
15/04:30am NW 5-6 kts 18.2°c 1013.1 hPa 92% 0.0mm
15/04:20am CALM 0-3 kts 18.3°c 1013.1 hPa 93% 0.0mm
15/04:00am WSW 3-4 kts 19.4°c 1012.9 hPa 94% 0.0mm
15/03:30am WNW 4-5 kts 19.6°c 1012.9 hPa 94% 0.0mm
15/03:05am WNW 2-4 kts 19.1°c 1013.1 hPa 91% 0.0mm
15/03:00am WNW 4-5 kts 19.0°c 1013.1 hPa 91% 0.0mm
15/02:42am WNW 4 kts 18.8°c 1013.2 hPa 90% 0.0mm
15/02:30am WNW 4-5 kts 19.2°c 1013.2 hPa 89% 0.0mm
15/02:00am WSW 3-4 kts 20.0°c 1013.1 hPa 87% 0.0mm
15/01:30am W 3-5 kts 20.7°c 1013.3 hPa 88% 0.0mm
15/01:00am NW 5-6 kts 20.5°c 1013.5 hPa 89% 0.0mm
15/12:30am W 4 kts 20.4°c 1013.8 hPa 86% 0.0mm
15/12:00am SSW 3-5 kts 21.5°c 1013.9 hPa 84% 0.0mm
Time Wind Speed Temp Pressure Rel. Hum Rain
14/11:30pm WSW 5 kts 21.3°c 1014.3 hPa 85% 0.0mm
14/11:00pm ENE 3-5 kts 21.1°c 1014.5 hPa 84% 0.0mm
14/10:30pm CALM 0 kts 22.3°c 1014.3 hPa 84% 0.0mm
14/10:00pm N 4 kts 21.9°c 1014.4 hPa 83% 0.0mm
14/09:52pm NNE 3-4 kts 22.1°c 1014.3 hPa 83% 0.0mm
14/09:30pm N 4-7 kts 22.2°c 1014.1 hPa 81% 0.0mm
14/09:00pm NE 5-7 kts 22.8°c 1014.0 hPa 84% 0.0mm
14/08:30pm NE 7 kts 22.8°c 1013.8 hPa 82% 0.0mm
14/08:02pm NE 7-8 kts 22.8°c 1013.7 hPa 82% 0.0mm
14/08:00pm NNE 7-9 kts 22.8°c 1013.7 hPa 82% 0.0mm
14/07:30pm NNE 7-9 kts 21.9°c 1013.3 hPa 79% 0.0mm
14/07:00pm NNE 8-11 kts 22.3°c 1013.0 hPa 78% 0.0mm
14/06:30pm NE 8-9 kts 22.5°c 1012.9 hPa 77% 0.0mm
14/06:00pm ENE 7-9 kts 22.8°c 1012.6 hPa 75% 0.0mm
14/05:30pm NE 8-10 kts 23.3°c 1012.2 hPa 72% 0.0mm
14/05:00pm NE 9-11 kts 23.9°c 1011.9 hPa 71% 0.0mm
14/04:30pm ENE 11-13 kts 24.3°c 1011.8 hPa 67% 0.0mm
14/04:00pm ENE 11-14 kts 24.7°c 1011.6 hPa 65% 0.0mm
14/03:30pm ENE 11-13 kts 24.9°c 1012.0 hPa 64% 0.0mm
14/03:00pm ENE 11-13 kts 25.4°c 1012.1 hPa 58% 0.0mm
14/02:30pm ENE 11-14 kts 25.8°c 1012.2 hPa 59% 0.0mm
14/02:00pm ENE 11-13 kts 25.8°c 1012.5 hPa 58% 0.0mm
14/01:30pm ENE 12-15 kts 26.1°c 1012.9 hPa 57% 0.0mm
14/01:00pm E 11-14 kts 25.7°c 1013.3 hPa 56% 0.0mm
14/12:30pm E 11-13 kts 25.9°c 1013.9 hPa 56% 0.0mm
14/12:00pm E 11-13 kts 25.5°c 1014.3 hPa 55% 0.0mm
14/11:30am E 10-13 kts 25.6°c 1014.6 hPa 56% 0.0mm
14/11:00am ESE 10-13 kts 25.2°c 1015.0 hPa 58% 0.0mm
14/10:30am ESE 10-13 kts 25.4°c 1015.4 hPa 58% 0.0mm
14/10:00am ESE 10-13 kts 24.9°c 1015.8 hPa 58% 0.0mm
14/09:30am ESE 10-13 kts 24.5°c 1016.1 hPa 61% 0.0mm
14/09:00am ESE 9-12 kts 24.4°c 1016.3 hPa 60% 0.0mm
14/08:30am SE 9-12 kts 24.1°c 1016.2 hPa 60% 0.0mm
14/08:00am SE 10-13 kts 23.9°c 1016.2 hPa 62% 0.0mm
14/07:30am SE 9-11 kts 23.4°c 1015.9 hPa 63% 0.0mm
14/07:00am SE 10-13 kts 23.3°c 1015.7 hPa 65% 0.0mm
14/06:30am SE 9-12 kts 23.0°c 1015.4 hPa 68% 0.0mm
14/06:00am SE 10-13 kts 22.2°c 1014.9 hPa 71% 0.0mm
14/05:30am SE 9-12 kts 21.6°c 1014.6 hPa 74% 0.0mm
14/05:00am SE 10-14 kts 21.5°c 1014.2 hPa 75% 0.0mm
14/04:30am SE 9-13 kts 21.5°c 1013.9 hPa 75% 0.0mm
14/04:00am SE 10-14 kts 21.5°c 1013.6 hPa 74% 0.0mm
14/03:30am SE 10-13 kts 21.5°c 1013.4 hPa 74% 0.0mm
14/03:00am SE 9-11 kts 21.5°c 1013.3 hPa 76% 0.0mm
14/02:30am SE 10-13 kts 21.7°c 1013.4 hPa 76% 0.0mm
14/02:00am SE 10-14 kts 21.8°c 1013.4 hPa 75% 0.0mm
14/01:30am SE 11-14 kts 21.9°c 1013.4 hPa 76% 0.0mm
14/01:00am SE 10-13 kts 22.0°c 1013.7 hPa 75% 0.0mm
14/12:30am ESE 11-15 kts 22.0°c 1013.6 hPa 74% 0.0mm
14/12:00am SE 12-16 kts 22.4°c 1013.8 hPa 74% 0.0mm
Time Wind Speed Temp Pressure Rel. Hum Rain
13/11:30pm SE 11-14 kts 22.3°c 1014.0 hPa 74% 0.0mm
13/11:00pm SE 12-16 kts 22.5°c 1014.0 hPa 73% 0.0mm
13/10:30pm SE 12-16 kts 22.6°c 1014.2 hPa 75% 0.0mm
13/10:00pm SE 13-16 kts 22.7°c 1014.2 hPa 72% 0.0mm
13/09:30pm SE 13-17 kts 22.8°c 1014.1 hPa 74% 0.0mm
13/09:00pm SSE 12-17 kts 22.9°c 1013.7 hPa 74% 0.0mm
13/08:30pm SSE 13-17 kts 22.9°c 1013.4 hPa 74% 0.0mm
13/08:00pm SSE 12-17 kts 22.8°c 1013.2 hPa 73% 0.0mm
13/07:30pm SSE 13-19 kts 22.9°c 1012.7 hPa 73% 0.0mm
13/07:00pm SE 14-19 kts 23.1°c 1012.3 hPa 74% 0.0mm
13/06:30pm SE 15-20 kts 23.0°c 1012.0 hPa 73% 0.0mm
13/06:00pm SE 17-22 kts 23.2°c 1011.4 hPa 76% 0.0mm
13/05:30pm SE 17-23 kts 23.4°c 1011.1 hPa 75% 0.0mm
13/05:11pm SE 17-27 kts 23.8°c 1010.5 hPa 76% 0.0mm
13/05:00pm SE 18-25 kts 23.8°c 1010.3 hPa 75% 0.0mm
13/04:30pm SSE 18-25 kts 24.7°c 1009.7 hPa 74% 0.0mm
13/04:00pm SSE 13-19 kts 26.2°c 1009.0 hPa 71% 0.0mm
13/03:30pm SE 11-15 kts 26.8°c 1008.1 hPa 70% 0.0mm
13/03:00pm E 9-15 kts 26.2°c 1008.0 hPa 72% 0.0mm
13/02:30pm NE 16-21 kts 27.2°c 1007.0 hPa 68% 0.0mm
13/02:00pm NE 16-19 kts 27.8°c 1007.5 hPa 69% 0.0mm
13/01:30pm NE 18-22 kts 27.7°c 1007.8 hPa 64% 0.0mm
13/01:00pm NE 16-21 kts 29.1°c 1008.3 hPa 59% 0.0mm
13/12:38pm ENE 10-18 kts 29.9°c 1008.7 hPa 47% 0.0mm
13/12:30pm NNW 4-8 kts 35.2°c 1008.7 hPa 21% 0.0mm
13/12:00pm NNW 6-12 kts 34.1°c 1009.2 hPa 23% 0.0mm
13/11:30am W 9-18 kts 33.7°c 1009.7 hPa 24% 0.0mm
13/11:00am WNW 11-21 kts 33.1°c 1010.0 hPa 27% 0.0mm
13/10:30am WNW 11-17 kts 32.1°c 1010.3 hPa 29% 0.0mm
13/10:00am WNW 10-16 kts 31.3°c 1010.8 hPa 33% 0.0mm
13/09:30am NW 14-19 kts 30.0°c 1010.9 hPa 36% 0.0mm
13/09:00am NW 14-19 kts 28.9°c 1011.0 hPa 43% 0.0mm
13/08:30am NW 15-23 kts 27.6°c 1011.2 hPa 49% 0.0mm
13/08:27am NW 15-23 kts 27.6°c 1011.2 hPa 48% 0.0mm
13/08:14am NW 18-26 kts 26.9°c 1011.1 hPa 50% 0.0mm
13/08:00am NW 17-24 kts 26.6°c 1011.2 hPa 54% 0.0mm
13/07:30am NW 15-22 kts 24.9°c 1011.1 hPa 60% 0.0mm
13/07:00am NW 18-25 kts 24.2°c 1011.4 hPa 65% 0.0mm
13/06:40am NW 18-28 kts 23.4°c 1011.2 hPa 67% 0.0mm
13/06:30am NW 17-23 kts 23.1°c 1011.0 hPa 69% 0.0mm
13/06:00am NW 17-24 kts 22.1°c 1010.1 hPa 74% 0.0mm
13/05:30am NW 16-22 kts 21.5°c 1010.0 hPa 76% 0.0mm
13/05:00am NNW 13-19 kts 21.0°c 1009.8 hPa 76% 0.0mm
13/04:30am NNW 15-23 kts 20.9°c 1009.5 hPa 77% 0.0mm
13/04:00am NNW 15-21 kts 20.8°c 1009.4 hPa 77% 0.0mm
13/03:30am NNW 16-25 kts 21.2°c 1009.1 hPa 76% 0.0mm
13/03:00am NNW 16-23 kts 21.2°c 1009.5 hPa 76% 0.0mm
13/02:30am NNW 13-20 kts 20.9°c 1009.7 hPa 75% 0.0mm
13/02:00am NNW 12-17 kts 20.9°c 1009.5 hPa 76% 0.0mm
13/01:30am NNW 13-19 kts 21.2°c 1010.0 hPa 74% 0.0mm
13/01:00am NNW 10-17 kts 21.1°c 1010.2 hPa 72% 0.0mm
13/12:30am NNW 11-17 kts 21.3°c 1010.5 hPa 71% 0.0mm
13/12:00am NNW 10-13 kts 21.5°c 1010.9 hPa 70% 0.0mm